User: anonymous   Login
Location: Ostrava
(49.8330°N, 18.2830°E)
Time: 02:38:38
(UTC+01:00)
Language:

Cosmos 1766 - Orbit

View from above orbital plane
View from above orbital plane
View from above satellite
View from above satellite

Ground track
Ground track

The orbit data is extracted from the following two-line orbital elements,

1 16881U 86055A   14329.77826024  .00003001  00000-0  20026-3 0   227
2 16881 082.5125 216.0321 0013071 032.1439 328.0583 15.06633371540528
Epoch (UTC): 25 November 2014 18:40:41
Eccentricity: 0.0013071
inclination: 82.5125°
perigee height: 537 km
apogee height: 555 km
right ascension of ascending node: 216.0321°
argument of perigee: 32.1439°
revolutions per day: 15.06633371
mean anomaly at epoch: 328.0583°
orbit number at epoch: 54052

The dashed part of the orbit path shows where the satellite is in the earth's shadow,  

DLR